Location: Unnamed
(42.1164°N, 2.7652°E)
Time: 20:18:08
(UTC+01:00)

ISS - Visible Passes

Search period start: 23 January 2021 00:00
Search period end: 02 February 2021 00:00
Orbit: 418 x 421 km, 51.6° (Epoch: 24 January)

Date Brightness Start Highest point End Pass type
(mag) Time Alt. Az. Time Alt. Az. Time Alt. Az.
23 Jan -2.1 19:31:18 10° WNW 19:34:07 24° NNW 19:34:48 22° N visible
24 Jan -2.4 18:43:33 10° W 18:46:37 31° NNW 18:49:25 12° NE visible
24 Jan -0.7 20:21:57 10° NW 20:22:23 12° NW 20:22:23 12° NW visible
25 Jan -1.7 19:34:14 10° NW 19:36:36 17° N 19:36:58 17° N visible
26 Jan -1.8 18:46:26 10° WNW 18:49:00 20° NNW 18:51:32 10° NE visible
26 Jan -0.6 20:24:24 10° NW 20:24:30 10° NW 20:24:30 10° NW visible
27 Jan -1.6 19:36:53 10° NW 19:39:03 16° N 19:39:03 16° N visible
28 Jan -1.6 18:49:14 10° NW 18:51:28 16° N 18:53:37 10° NE visible
28 Jan -0.7 20:26:23 10° NW 20:26:35 11° NW 20:26:35 11° NW visible
29 Jan -1.8 19:39:01 10° NW 19:41:09 19° N 19:41:09 19° N visible
30 Jan -1.8 18:51:34 10° NW 18:53:55 17° N 18:55:46 12° NE visible
30 Jan -0.8 20:28:09 10° NW 20:28:44 14° NW 20:28:44 14° NW visible
31 Jan -2.4 19:40:50 10° NW 19:43:24 28° N 19:43:24 28° N visible
01 Feb -2.3 18:53:28 10° NW 18:56:15 23° NNE 18:58:08 15° ENE visible
01 Feb -1.1 20:30:00 10° WNW 20:31:07 19° WNW 20:31:07 19° WNW visible
